When you browse on this site, cookies collect data to enhance your experience and personalize the content and advertising you see.
Visit our Privacy Policy to learn more. By continuing to use the site, you agree to this use of cookies and data.
  • In Romania
  • List of Countries
  • For 7 days
  • Water Temperature
  • Satellite Maps
  • Weather Map
  • Weather Widgets
  • user-avatar
    Login

    Hourly Weather Kestenga

    Today, 22 February, Friday

    Time Temperature Precipitation Wind Pressure Humidity
    00:00 -18°C° 0 mm 3 mps 760 mmHg 83%
    01:00 -18°C° 0 mm 3 mps 761 mmHg 83%
    02:00 -18°C° 0 mm 3 mps 761 mmHg 81%
    03:00 -17°C° 0 mm 3 mps 761 mmHg 80%
    04:00 -17°C° 0 mm 3 mps 762 mmHg 80%
    05:00 -18°C° 0 mm 4 mps 762 mmHg 79%
    06:00 -18°C° 0 mm 4 mps 762 mmHg 78%
    07:00 -18°C° 0 mm 4 mps 762 mmHg 78%
    08:00 -17°C° 0 mm 4 mps 762 mmHg 78%
    09:00 -16°C° 0 mm 4 mps 762 mmHg 76%
    10:00 -15°C° 0 mm 4 mps 762 mmHg 73%
    11:00 -14°C° 0 mm 4 mps 762 mmHg 71%
    12:00 -12°C° 0 mm 4 mps 761 mmHg 72%
    13:00 -12°C° 0 mm 4 mps 761 mmHg 73%
    14:00 -12°C° 0 mm 5 mps 761 mmHg 73%
    15:00 -12°C° 0 mm 5 mps 760 mmHg 76%
    16:00 -12°C° 0 mm 5 mps 759 mmHg 79%
    17:00 -13°C° 0 mm 5 mps 758 mmHg 82%
    18:00 -12°C° 0 mm 5 mps 757 mmHg 83%
    19:00 -11°C° 0 mm 5 mps 756 mmHg 84%
    20:00 -10°C° 0 mm 6 mps 755 mmHg 84%
    21:00 -10°C° 0.2 mm 6 mps 754 mmHg 87%
    22:00 -9°C° 0.2 mm 6 mps 753 mmHg 89%
    23:00 -9°C° 0.2 mm 6 mps 752 mmHg 92%

    Tomorrow, 23 February, Saturday

    Time Temperature Precipitation Wind Pressure Humidity
    00:00 -8°C° 0.5 mm 6 mps 751 mmHg 92%
    01:00 -6°C° 0.5 mm 5 mps 750 mmHg 92%
    02:00 -6°C° 0.5 mm 5 mps 750 mmHg 93%
    03:00 -4°C° 0.4 mm 4 mps 749 mmHg 93%
    04:00 -3°C° 0.4 mm 4 mps 748 mmHg 93%
    05:00 -2°C° 0.4 mm 4 mps 748 mmHg 93%
    06:00 -1°C° 0.2 mm 3 mps 747 mmHg 94%
    07:00 0°C° 0.2 mm 3 mps 747 mmHg 96%
    08:00 0°C° 0.2 mm 3 mps 747 mmHg 97%
    09:00 +1°C° 0 mm 3 mps 747 mmHg 98%
    10:00 +1°C° 0 mm 3 mps 747 mmHg 98%
    11:00 +1°C° 0 mm 3 mps 747 mmHg 99%
    12:00 +1°C° 0 mm 3 mps 747 mmHg 99%
    13:00 +1°C° 0 mm 3 mps 747 mmHg 99%
    14:00 +1°C° 0 mm 4 mps 748 mmHg 99%
    15:00 0°C° 0 mm 4 mps 748 mmHg 98%
    16:00 0°C° 0 mm 4 mps 749 mmHg 98%
    17:00 0°C° 0 mm 4 mps 750 mmHg 97%
    18:00 0°C° 0 mm 3 mps 750 mmHg 96%
    19:00 -1°C° 0 mm 3 mps 751 mmHg 96%
    20:00 -2°C° 0 mm 3 mps 751 mmHg 95%
    21:00 -1°C° 0 mm 3 mps 751 mmHg 95%
    22:00 -1°C° 0 mm 3 mps 751 mmHg 95%
    23:00 -1°C° 0 mm 3 mps 752 mmHg 96%

    Day after tomorrow, 24 February, Sunday

    Time Temperature Precipitation Wind Pressure Humidity
    00:00 -1°C° 0 mm 3 mps 752 mmHg 95%
    01:00 -1°C° 0 mm 3 mps 752 mmHg 95%
    02:00 -1°C° 0 mm 2 mps 752 mmHg 95%
    03:00 -2°C° 0 mm 2 mps 752 mmHg 94%
    04:00 -2°C° 0 mm 2 mps 752 mmHg 93%
    05:00 -3°C° 0 mm 2 mps 752 mmHg 92%
    06:00 -3°C° 0 mm 2 mps 751 mmHg 92%
    07:00 -3°C° 0 mm 2 mps 751 mmHg 91%
    08:00 -3°C° 0 mm 2 mps 751 mmHg 91%
    09:00 -2°C° 0 mm 3 mps 750 mmHg 91%
    10:00 -1°C° 0 mm 3 mps 749 mmHg 91%
    11:00 -1°C° 0 mm 4 mps 749 mmHg 90%
    12:00 -1°C° 0 mm 4 mps 748 mmHg 93%
    13:00 -1°C° 0 mm 4 mps 747 mmHg 95%
    14:00 -1°C° 0 mm 5 mps 746 mmHg 98%
    15:00 0°C° 0.1 mm 5 mps 745 mmHg 96%
    16:00 0°C° 0.1 mm 5 mps 744 mmHg 94%
    17:00 0°C° 0.1 mm 5 mps 743 mmHg 93%
    18:00 0°C° 0.1 mm 5 mps 743 mmHg 92%
    19:00 -1°C° 0.1 mm 6 mps 743 mmHg 92%
    20:00 +1°C° 0.1 mm 6 mps 742 mmHg 92%
    21:00 -1°C° 0 mm 6 mps 742 mmHg 87%
    22:00 -1°C° 0 mm 6 mps 742 mmHg 82%
    23:00 -2°C° 0 mm 6 mps 742 mmHg 77%

    25 February, Monday

    Time Temperature Precipitation Wind Pressure Humidity
    00:00 -2°C° 0 mm 6 mps 742 mmHg 77%
    01:00 -2°C° 0 mm 6 mps 742 mmHg 77%
    02:00 -2°C° 0 mm 6 mps 741 mmHg 77%
    03:00 -2°C° 0 mm 6 mps 741 mmHg 77%
    04:00 -3°C° 0 mm 6 mps 740 mmHg 78%
    05:00 -3°C° 0 mm 6 mps 740 mmHg 78%
    06:00 -2°C° 0.1 mm 7 mps 740 mmHg 79%
    07:00 -2°C° 0.1 mm 7 mps 740 mmHg 79%
    08:00 -2°C° 0.1 mm 7 mps 740 mmHg 80%
    09:00 -1°C° 0.2 mm 7 mps 741 mmHg 81%
    10:00 -1°C° 0.2 mm 7 mps 742 mmHg 82%
    11:00 -1°C° 0.2 mm 7 mps 743 mmHg 83%
    12:00 -1°C° 0 mm 6 mps 744 mmHg 82%
    13:00 -1°C° 0 mm 6 mps 745 mmHg 81%
    14:00 -1°C° 0 mm 6 mps 746 mmHg 80%
    15:00 -1°C° 0 mm 5 mps 747 mmHg 82%
    16:00 -1°C° 0 mm 4 mps 747 mmHg 85%
    17:00 -2°C° 0 mm 4 mps 748 mmHg 87%
    18:00 -2°C° 0 mm 4 mps 748 mmHg 88%
    19:00 -3°C° 0 mm 4 mps 747 mmHg 90%
    20:00 -3°C° 0 mm 4 mps 747 mmHg 91%
    21:00 -2°C° 0 mm 3 mps 747 mmHg 92%
    22:00 -2°C° 0 mm 3 mps 746 mmHg 92%
    23:00 -2°C° 0 mm 3 mps 746 mmHg 93%

    26 February, Tuesday

    Time Temperature Precipitation Wind Pressure Humidity
    00:00 -3°C° 0 mm 2 mps 745 mmHg 93%
    01:00 -3°C° 0 mm 2 mps 744 mmHg 94%
    02:00 -4°C° 0 mm 2 mps 743 mmHg 95%
    03:00 -4°C° 0.2 mm 2 mps 743 mmHg 95%
    04:00 -3°C° 0.2 mm 2 mps 742 mmHg 95%
    05:00 -3°C° 0.2 mm 2 mps 742 mmHg 96%
    06:00 -2°C° 0 mm 1 mps 742 mmHg 96%
    07:00 -2°C° 0 mm 1 mps 742 mmHg 96%
    08:00 -2°C° 0 mm 1 mps 742 mmHg 96%
    09:00 -2°C° 0 mm 1 mps 743 mmHg 94%
    10:00 -3°C° 0 mm 2 mps 744 mmHg 93%
    11:00 -2°C° 0 mm 2 mps 745 mmHg 92%
    12:00 -1°C° 0.1 mm 3 mps 746 mmHg 90%
    13:00 -2°C° 0.1 mm 4 mps 746 mmHg 88%
    14:00 -1°C° 0.1 mm 5 mps 747 mmHg 86%
    15:00 -2°C° 0 mm 4 mps 748 mmHg 86%
    16:00 -3°C° 0 mm 4 mps 748 mmHg 85%
    17:00 -4°C° 0 mm 4 mps 749 mmHg 84%
    18:00 -4°C° 0 mm 4 mps 749 mmHg 85%
    19:00 -5°C° 0 mm 4 mps 749 mmHg 85%
    20:00 -5°C° 0 mm 4 mps 749 mmHg 85%
    21:00 -7°C° 0 mm 4 mps 748 mmHg 87%
    22:00 -6°C° 0 mm 3 mps 748 mmHg 89%
    23:00 -6°C° 0 mm 2 mps 747 mmHg 91%

    27 February, Wednesday

    Time Temperature Precipitation Wind Pressure Humidity
    00:00 -6°C° 0 mm 3 mps 747 mmHg 89%
    01:00 -6°C° 0 mm 3 mps 746 mmHg 87%
    02:00 -5°C° 0 mm 3 mps 745 mmHg 86%
    03:00 -4°C° 0.1 mm 4 mps 743 mmHg 87%
    04:00 -4°C° 0.1 mm 4 mps 742 mmHg 88%
    05:00 -5°C° 0.1 mm 5 mps 740 mmHg 89%
    06:00 -4°C° 0.7 mm 5 mps 739 mmHg 89%
    07:00 -4°C° 0.7 mm 5 mps 737 mmHg 90%
    08:00 -2°C° 0.7 mm 5 mps 735 mmHg 90%
    09:00 -2°C° 0.3 mm 5 mps 734 mmHg 90%
    10:00 -1°C° 0.3 mm 5 mps 733 mmHg 90%
    11:00 -1°C° 0.3 mm 5 mps 731 mmHg 90%
    12:00 -1°C° 0.2 mm 5 mps 730 mmHg 90%
    13:00 0°C° 0.2 mm 4 mps 729 mmHg 89%
    14:00 0°C° 0.2 mm 4 mps 728 mmHg 89%
    15:00 -1°C° 0 mm 4 mps 728 mmHg 89%
    16:00 0°C° 0 mm 3 mps 727 mmHg 90%
    17:00 -1°C° 0 mm 3 mps 726 mmHg 90%
    18:00 -1°C° 0 mm 2 mps 725 mmHg 92%
    19:00 -2°C° 0 mm 2 mps 724 mmHg 93%
    20:00 -3°C° 0 mm 2 mps 724 mmHg 95%
    21:00 -1°C° 0 mm 1 mps 723 mmHg 95%
    22:00 -2°C° 0 mm 1 mps 723 mmHg 95%
    23:00 -2°C° 0 mm 1 mps 723 mmHg 96%
    Show more